Regional Weather Roundup
Issued by NWS

Home | Current Version | Previous Version | Graphics & Text | Print | Product List | Glossary On
Versions: 1 2 3 4 5 6 7 8 9 10 11 12 13 14 15 16 17 18 19 20 21 22 23 24 25 26 27 28 29 30 31 32 33 34 35 36 37 38 39 40 41 42 43 44 45 46 47 48 49 50
370
ASUS43 KTOP 140559
RWRKS

WEATHER ROUNDUP FOR KANSAS
NATIONAL WEATHER SERVICE GOODLAND KS
1200 AM CST THU DEC 14 2017

NOTE:  "FAIR" INDICATES FEW OR NO CLOUDS BELOW 12,000 FEET WITH NO
SIGNIFICANT WEATHER AND/OR OBSTRUCTIONS TO VISIBILITY.

KSZ001>006-013>018-027>032-041>047-140700-
NORTHWEST KANSAS

CITY           SKY/WX    TMP DP  RH WIND       PRES   REMARKS
GOODLAND       CLOUDY    37  18  46 N9        30.11R
6HR MIN TEMP:  31; 6HR MAX TEMP:  42;

HAYS           CLEAR     36  22  56 N12       30.06  WCI  28
RUSSELL        CLEAR     31  22  69 NW12      30.03R WCI  22
6HR MIN TEMP:  29; 6HR MAX TEMP:  46;

$$

KSZ061>065-074>080-084>089-140700-
SOUTHWEST KANSAS

CITY           SKY/WX    TMP DP  RH WIND       PRES   REMARKS
DODGE CITY     CLOUDY    38  17  42 NW6       30.05R
6HR MIN TEMP:  36; 6HR MAX TEMP:  42;

GARDEN CITY    CLOUDY    38  17  42 N8        30.07R
6HR MIN TEMP:  36; 6HR MAX TEMP:  44;

LIBERAL        CLOUDY    44  17  33 NE12      30.05S
$$

KSZ066>073-081>083-090>101-140700-
SOUTHEAST KANSAS

CITY           SKY/WX    TMP DP  RH WIND       PRES   REMARKS
CHANUTE        CLEAR     40  27  59 N10       29.98R WCI  33
6HR MIN TEMP:  39; 6HR MAX TEMP:  51;

COFFEYVILLE    CLOUDY    40  25  55 N7        29.96R
6HR MIN TEMP:  38; 6HR MAX TEMP:  52;

HUTCHINSON     CLEAR     39  24  55 N10       30.00R WCI  32
6HR MIN TEMP:  38; 6HR MAX TEMP:  50;

MEDICINE LODGE   N/A     43  22  43 N6        30.01R
NEWTON         CLEAR     34  22  61 N10       29.99R WCI  26
PARSONS        CLEAR     36  26  67 N6        29.97R
6HR MIN TEMP:  35; 6HR MAX TEMP:  50;

WICHITA INTL   CLOUDY    37  23  56 N8        29.99R
6HR MIN TEMP:  37; 6HR MAX TEMP:  56;

WICHITA JABRA  CLEAR     35  24  64 NW7       29.98R
6HR MIN TEMP:  35; 6HR MAX TEMP:  47;

WICHITA MCCONL CLEAR     39  22  51 N8        29.98R
WINFIELD       CLOUDY    40  27  59 N7        29.99S
6HR MIN TEMP:  37; 6HR MAX TEMP:  45;

$$

KSZ007>012-019>026-033>040-048>060-102>105-140700-
NORTHEAST KANSAS

CITY           SKY/WX    TMP DP  RH WIND       PRES   REMARKS
CONCORDIA      PTCLDY    34  26  72 N7        30.03R
6HR MIN TEMP:  34; 6HR MAX TEMP:  46;

EMPORIA        CLEAR     35  26  69 N7        29.99R
6HR MIN TEMP:  35; 6HR MAX TEMP:  47;

LAWRENCE       CLEAR     28  23  81 NW6       29.98S
6HR MIN TEMP:  28; 6HR MAX TEMP:  49;

MANHATTAN      CLEAR     35  26  69 N5        30.01R
6HR MIN TEMP:  35; 6HR MAX TEMP:  50;

OLATHE IND     CLEAR     30  25  81 N8        29.97F
6HR MIN TEMP:  30; 6HR MAX TEMP:  49;

OLATHE EXE     CLEAR     37  28  70 N7        29.96S
6HR MIN TEMP:  36; 6HR MAX TEMP:  50;

SALINA         CLEAR     33  23  66 N6        30.02R
6HR MIN TEMP:  32; 6HR MAX TEMP:  48;

TOPEKA BILLARD CLEAR     35  28  75 NW5       29.99R
6HR MIN TEMP:  34; 6HR MAX TEMP:  49;

TOPEKA FORBES  CLEAR     38  28  67 N12       29.97S WCI  30
6HR MIN TEMP:  36; 6HR MAX TEMP:  51;

$$




USA.gov is the U.S. government's official web portal to all federal, state and local government web resources and services.